Location: Arbon
(43.0005°N, 0.7472°E)
Time: 10:46:53
(UTC+00:00)

Vanguard 2 Rocket - Pass Details

Date: 30 November 2020
Orbit: 554 x 3325 km, 32.9° (Epoch: 21 January)

Event Time Altitude Azimuth Distance (km) Brightness Sun altitude
Rises 14:21:44 0° 277° (W) 6,484 11.7 16.0°
Reaches altitude 10° 14:28:58 10° 259° (W) 4,862 11.5 15.1°
Maximum altitude 14:35:17 15° 230° (SW) 3,813 12.6 14.4°
Drops below altitude 10° 14:40:17 10° 199° (SSW) 3,658 11.5 13.8°
Sets 14:44:27 0° 176° (S) 4,141 11.0 13.3°
